Location: Carrières
(48.9495°N, 2.0407°E)
Time: 11:31:13
(UTC+00:00)

Transit 2A Rocket - Pass Details

Date: 30 April 2024
Orbit: 584 x 909 km, 66.7° (Epoch: 25 May)

Event Time Altitude Azimuth Distance (km) Brightness Sun altitude
Rises 11:05:29 0° 260° (W) 2,975 8.0 54.9°
Reaches altitude 10° 11:08:07 10° 275° (W) 2,118 7.3 55.0°
Maximum altitude 11:11:57 23° 328° (NNW) 1,502 6.5 55.2°
Drops below altitude 10° 11:16:05 10° 20° (NNE) 2,296 7.3 55.4°
Sets 11:19:05 0° 35° (NE) 3,290 8.0 55.5°
